Time,TemperatureF,DewpointF,PressureIn,WindDirection,WindDirectionDegrees,WindSpeedMPH,WindSpeedGustMPH,Humidity,HourlyPrecipIn,Conditions,Clouds,dailyrainin,SolarRadiationWatts/m^2,SoftwareType,DateUTC
2013-06-17 00:02:00,72.0,68.0,-100.00,SW,221,0.0,0.0,86,0.00,,,0.00,0.000000,,2013-06-17 04:02:00,
2013-06-17 00:23:00,72.0,68.0,-100.00,SW,229,1.0,1.0,86,0.00,,,0.00,0.000000,,2013-06-17 04:23:00,
2013-06-17 00:34:00,72.0,68.0,-100.00,SW,229,1.0,1.0,86,0.00,,,0.00,0.000000,,2013-06-17 04:34:00,
2013-06-17 00:43:00,72.0,68.0,-100.00,SW,229,1.0,1.0,86,0.00,,,0.00,0.000000,,2013-06-17 04:43:00,
2013-06-17 00:53:00,72.0,68.0,-100.00,SW,229,1.0,1.0,86,0.00,,,0.00,0.000000,,2013-06-17 04:53:00,
2013-06-17 01:02:00,72.0,68.0,-100.00,SW,229,1.0,1.0,86,0.00,,,0.00,0.000000,,2013-06-17 05:02:00,
2013-06-17 01:33:00,71.0,66.0,-100.00,SW,230,1.0,2.0,85,0.00,,,0.00,0.000000,,2013-06-17 05:33:00,
2013-06-17 01:44:00,71.0,66.0,-100.00,SW,230,1.0,2.0,85,0.00,,,0.00,0.000000,,2013-06-17 05:44:00,
2013-06-17 01:53:00,71.0,66.0,-100.00,SW,230,1.0,2.0,85,0.00,,,0.00,0.000000,,2013-06-17 05:53:00,
2013-06-17 02:02:00,71.0,66.0,-100.00,SW,230,1.0,2.0,85,0.00,,,0.00,0.000000,,2013-06-17 06:02:00,
2013-06-17 02:33:00,70.0,65.0,-100.00,SW,230,1.0,2.0,83,0.00,,,0.00,0.000000,,2013-06-17 06:33:00,
2013-06-17 02:43:00,70.0,65.0,-100.00,SW,230,1.0,2.0,83,0.00,,,0.00,0.000000,,2013-06-17 06:43:00,
2013-06-17 02:53:00,70.0,65.0,-100.00,SW,230,1.0,2.0,83,0.00,,,0.00,0.000000,,2013-06-17 06:53:00,
2013-06-17 03:02:00,70.0,65.0,-100.00,SW,230,1.0,2.0,83,0.00,,,0.00,0.000000,,2013-06-17 07:02:00,
2013-06-17 03:33:00,69.0,65.0,-100.00,SW,226,2.0,2.0,86,0.00,,,0.00,0.000000,,2013-06-17 07:33:00,
2013-06-17 03:43:00,69.0,65.0,-100.00,SW,226,2.0,2.0,86,0.00,,,0.00,0.000000,,2013-06-17 07:43:00,
2013-06-17 03:53:00,69.0,65.0,-100.00,SW,226,2.0,2.0,86,0.00,,,0.00,0.000000,,2013-06-17 07:53:00,
2013-06-17 04:02:00,69.0,65.0,-100.00,SW,226,2.0,2.0,86,0.00,,,0.00,0.000000,,2013-06-17 08:02:00,
2013-06-17 04:34:00,69.0,65.0,-100.00,SW,226,1.0,2.0,88,0.00,,,0.00,0.000000,,2013-06-17 08:34:00,
2013-06-17 04:43:00,69.0,65.0,-100.00,SW,226,1.0,2.0,88,0.00,,,0.00,0.000000,,2013-06-17 08:43:00,
2013-06-17 04:53:00,69.0,65.0,-100.00,SW,226,1.0,2.0,88,0.00,,,0.00,0.000000,,2013-06-17 08:53:00,
2013-06-17 05:02:00,69.0,65.0,-100.00,SW,226,1.0,2.0,88,0.00,,,0.00,0.000000,,2013-06-17 09:02:00,
2013-06-17 05:34:00,68.0,65.0,-100.00,SW,232,1.0,2.0,89,0.00,,,0.00,0.000000,,2013-06-17 09:34:00,
2013-06-17 05:44:00,68.0,65.0,-100.00,SW,232,1.0,2.0,89,0.00,,,0.00,0.000000,,2013-06-17 09:44:00,
2013-06-17 05:53:00,68.0,65.0,-100.00,SW,232,1.0,2.0,89,0.00,,,0.00,0.000000,,2013-06-17 09:53:00,
2013-06-17 06:02:00,68.0,65.0,-100.00,SW,232,1.0,2.0,89,0.00,,,0.00,0.000000,,2013-06-17 10:02:00,
2013-06-17 06:22:00,68.0,64.0,-100.00,SW,220,2.0,3.0,88,0.00,,,0.00,0.000000,,2013-06-17 10:22:00,
2013-06-17 06:33:00,68.0,64.0,-100.00,SW,220,2.0,3.0,88,0.00,,,0.00,0.000000,,2013-06-17 10:33:00,
2013-06-17 06:43:00,68.0,64.0,-100.00,SW,220,2.0,3.0,88,0.00,,,0.00,0.000000,,2013-06-17 10:43:00,
2013-06-17 06:54:00,68.0,64.0,-100.00,SW,220,2.0,3.0,88,0.00,,,0.00,0.000000,,2013-06-17 10:54:00,
2013-06-17 07:02:00,68.0,64.0,-100.00,SW,220,2.0,3.0,88,0.00,,,0.00,0.000000,,2013-06-17 11:02:00,
2013-06-17 07:23:00,69.0,65.0,-100.00,SW,227,0.0,2.0,87,0.00,,,0.00,19.000000,,2013-06-17 11:23:00,
2013-06-17 07:33:00,69.0,65.0,-100.00,SW,227,0.0,2.0,87,0.00,,,0.00,19.000000,,2013-06-17 11:33:00,
2013-06-17 07:43:00,69.0,65.0,-100.00,SW,227,0.0,2.0,87,0.00,,,0.00,19.000000,,2013-06-17 11:43:00,
2013-06-17 07:53:00,69.0,65.0,-100.00,SW,227,0.0,2.0,87,0.00,,,0.00,19.000000,,2013-06-17 11:53:00,
2013-06-17 08:02:00,69.0,65.0,-100.00,SW,227,0.0,2.0,87,0.00,,,0.00,19.000000,,2013-06-17 12:02:00,
2013-06-17 08:33:00,71.0,67.0,-100.00,SW,215,0.0,0.0,86,0.00,,,0.00,90.000000,,2013-06-17 12:33:00,
2013-06-17 08:43:00,71.0,67.0,-100.00,SW,215,0.0,0.0,86,0.00,,,0.00,90.000000,,2013-06-17 12:43:00,
2013-06-17 08:53:00,71.0,67.0,-100.00,SW,215,0.0,0.0,86,0.00,,,0.00,90.000000,,2013-06-17 12:53:00,
2013-06-17 09:02:00,71.0,67.0,-100.00,SW,215,0.0,0.0,86,0.00,,,0.00,90.000000,,2013-06-17 13:02:00,
2013-06-17 09:33:00,71.0,65.0,-100.00,SW,224,1.0,3.0,82,0.00,,,0.00,120.000000,,2013-06-17 13:33:00,
2013-06-17 09:43:00,71.0,65.0,-100.00,SW,224,1.0,3.0,82,0.00,,,0.00,120.000000,,2013-06-17 13:43:00,
2013-06-17 09:53:00,71.0,65.0,-100.00,SW,224,1.0,3.0,82,0.00,,,0.00,120.000000,,2013-06-17 13:53:00,
2013-06-17 10:02:00,71.0,65.0,-100.00,SW,224,1.0,3.0,82,0.00,,,0.00,120.000000,,2013-06-17 14:02:00,
2013-06-17 10:44:00,73.0,67.0,-100.00,South,177,1.0,3.0,82,0.00,,,0.00,161.000000,,2013-06-17 14:44:00,
2013-06-17 10:54:00,73.0,67.0,-100.00,South,177,1.0,3.0,82,0.00,,,0.00,161.000000,,2013-06-17 14:54:00,
2013-06-17 11:02:00,73.0,67.0,-100.00,South,177,1.0,3.0,82,0.00,,,0.00,161.000000,,2013-06-17 15:02:00,
2013-06-17 11:33:00,76.0,69.0,-100.00,SSW,209,2.0,4.0,78,0.00,,,-99.99,284.000000,,2013-06-17 15:33:00,
2013-06-17 11:43:00,76.0,69.0,-100.00,SSW,209,2.0,4.0,78,0.00,,,-99.99,284.000000,,2013-06-17 15:43:00,
2013-06-17 11:53:00,76.0,69.0,-100.00,SSW,209,2.0,4.0,78,0.00,,,-99.99,284.000000,,2013-06-17 15:53:00,
2013-06-17 12:02:00,76.0,69.0,-100.00,SSW,209,2.0,4.0,78,0.00,,,-99.99,284.000000,,2013-06-17 16:02:00,
2013-06-17 12:33:00,81.0,69.0,-100.00,WSW,241,2.0,5.0,67,0.00,,,0.00,754.000000,,2013-06-17 16:33:00,
2013-06-17 12:43:00,81.0,69.0,-100.00,WSW,241,2.0,5.0,67,0.00,,,0.00,754.000000,,2013-06-17 16:43:00,
2013-06-17 12:54:00,81.0,69.0,-100.00,WSW,241,2.0,5.0,67,0.00,,,0.00,754.000000,,2013-06-17 16:54:00,
2013-06-17 13:02:00,81.0,69.0,-100.00,WSW,241,2.0,5.0,67,0.00,,,0.00,754.000000,,2013-06-17 17:02:00,
2013-06-17 13:22:00,82.0,68.0,-100.00,SW,222,2.0,6.0,62,0.00,,,0.00,487.000000,,2013-06-17 17:22:00,
2013-06-17 13:33:00,82.0,68.0,-100.00,SW,222,2.0,6.0,62,0.00,,,0.00,487.000000,,2013-06-17 17:33:00,
2013-06-17 13:43:00,82.0,68.0,-100.00,SW,222,2.0,6.0,62,0.00,,,0.00,487.000000,,2013-06-17 17:43:00,
2013-06-17 13:52:00,82.0,68.0,-100.00,SW,222,2.0,6.0,62,0.00,,,0.00,487.000000,,2013-06-17 17:52:00,
2013-06-17 14:02:00,82.0,68.0,-100.00,SW,222,2.0,6.0,62,0.00,,,0.00,487.000000,,2013-06-17 18:02:00,
2013-06-17 14:33:00,84.0,71.0,-100.00,SSW,200,2.0,4.0,65,0.00,,,0.00,422.000000,,2013-06-17 18:33:00,
2013-06-17 14:43:00,84.0,71.0,-100.00,SSW,200,2.0,4.0,65,0.00,,,0.00,422.000000,,2013-06-17 18:43:00,
2013-06-17 14:53:00,84.0,71.0,-100.00,SSW,200,2.0,4.0,65,0.00,,,0.00,422.000000,,2013-06-17 18:53:00,
2013-06-17 15:02:00,84.0,71.0,-100.00,SSW,200,2.0,4.0,65,0.00,,,0.00,422.000000,,2013-06-17 19:02:00,
2013-06-17 15:33:00,83.0,72.0,-100.00,ESE,109,1.0,4.0,69,0.00,,,0.00,429.000000,,2013-06-17 19:33:00,
2013-06-17 15:43:00,83.0,72.0,-100.00,ESE,109,1.0,4.0,69,0.00,,,0.00,429.000000,,2013-06-17 19:43:00,
2013-06-17 15:54:00,83.0,72.0,-100.00,ESE,109,1.0,4.0,69,0.00,,,0.00,429.000000,,2013-06-17 19:54:00,
2013-06-17 16:02:00,83.0,72.0,-100.00,ESE,109,1.0,4.0,69,0.00,,,0.00,429.000000,,2013-06-17 20:02:00,
2013-06-17 16:34:00,85.0,73.0,-100.00,SW,227,3.0,6.0,67,0.00,,,0.00,508.000000,,2013-06-17 20:34:00,
2013-06-17 16:43:00,85.0,73.0,-100.00,SW,227,3.0,6.0,67,0.00,,,0.00,508.000000,,2013-06-17 20:43:00,
2013-06-17 16:52:00,85.0,73.0,-100.00,SW,227,3.0,6.0,67,0.00,,,0.00,508.000000,,2013-06-17 20:52:00,
2013-06-17 17:02:00,85.0,73.0,-100.00,SW,227,3.0,6.0,67,0.00,,,0.00,508.000000,,2013-06-17 21:02:00,
2013-06-17 18:54:00,76.0,70.0,-100.00,SW,220,1.0,7.0,83,0.01,,,0.01,81.000000,,2013-06-17 22:54:00,
2013-06-17 19:02:00,76.0,70.0,-100.00,SW,220,1.0,7.0,83,0.01,,,0.01,81.000000,,2013-06-17 23:02:00,
2013-06-17 19:33:00,75.0,73.0,-100.00,SE,128,0.0,2.0,95,0.03,,,0.04,33.000000,,2013-06-17 23:33:00,
2013-06-17 19:43:00,75.0,73.0,-100.00,SE,128,0.0,2.0,95,0.03,,,0.04,33.000000,,2013-06-17 23:43:00,
2013-06-17 19:53:00,75.0,73.0,-100.00,SE,128,0.0,2.0,95,0.03,,,0.04,33.000000,,2013-06-17 23:53:00,
2013-06-17 20:02:00,75.0,73.0,-100.00,SE,128,0.0,2.0,95,0.03,,,0.04,33.000000,,2013-06-18 00:02:00,
2013-06-17 20:33:00,74.0,73.0,-100.00,SW,229,2.0,4.0,96,0.04,,,0.08,28.000000,,2013-06-18 00:33:00,
2013-06-17 20:43:00,74.0,73.0,-100.00,SW,229,2.0,4.0,96,0.04,,,0.08,28.000000,,2013-06-18 00:43:00,
2013-06-17 20:52:00,74.0,73.0,-100.00,SW,229,2.0,4.0,96,0.04,,,0.08,28.000000,,2013-06-18 00:52:00,
2013-06-17 21:01:00,74.0,73.0,-100.00,SW,229,2.0,4.0,96,0.04,,,0.08,28.000000,,2013-06-18 01:01:00,
2013-06-17 21:44:00,72.0,71.0,-100.00,SW,224,4.0,6.0,98,0.01,,,0.09,3.000000,,2013-06-18 01:44:00,
2013-06-17 21:53:00,72.0,71.0,-100.00,SW,224,4.0,6.0,98,0.01,,,0.09,3.000000,,2013-06-18 01:53:00,
2013-06-17 22:02:00,72.0,71.0,-100.00,SW,224,4.0,6.0,98,0.01,,,0.09,3.000000,,2013-06-18 02:02:00,
2013-06-17 22:43:00,70.0,69.0,-100.00,SW,225,3.0,5.0,97,0.01,,,0.10,0.000000,,2013-06-18 02:43:00,
2013-06-17 22:53:00,70.0,69.0,-100.00,SW,225,3.0,5.0,97,0.01,,,0.10,0.000000,,2013-06-18 02:53:00,
2013-06-17 23:02:00,70.0,69.0,-100.00,SW,225,3.0,5.0,97,0.01,,,0.10,0.000000,,2013-06-18 03:02:00,
2013-06-17 23:23:00,69.0,68.0,-100.00,SW,231,2.0,4.0,98,0.00,,,0.10,0.000000,,2013-06-18 03:23:00,
2013-06-17 23:34:00,69.0,68.0,-100.00,SW,231,2.0,4.0,98,0.00,,,0.10,0.000000,,2013-06-18 03:34:00,
2013-06-17 23:43:00,69.0,68.0,-100.00,SW,231,2.0,4.0,98,0.00,,,0.10,0.000000,,2013-06-18 03:43:00,
2013-06-17 23:53:00,69.0,68.0,-100.00,SW,231,2.0,4.0,98,0.00,,,0.10,0.000000,,2013-06-18 03:53:00,